Chatham, MA

6:26 AM EDT on April 24, 2017 (GMT -0400)
Chatham Municipal

Weather History for KCQX - March, 2013

Change the Weather History Date:

Saturday, March 9, 2013

  Actual Average Record
Temperature  
Mean Temperature 38 °F -  
Max Temperature 39 °F 40 °F 57 °F (2002)
Min Temperature 37 °F 27 °F 12 °F (2005)
Degree Days  
Heating Degree Days 27    
Moisture  
Dew Point 30 °F    
Average Humidity 75    
Maximum Humidity 79    
Minimum Humidity 70    
Precipitation  
Precipitation 0.00 in - - ()
Sea Level Pressure  
Sea Level Pressure 30.19 in    
Wind  
Wind Speed 13 mph (NNE)    
Max Wind Speed 16 mph    
Max Gust Speed 30 mph    
Visibility 10 miles    
Events      
Averages and records for this station are not official NWS values.
T = Trace of Precipitation, MM = Missing Value Source: NWS Daily Summary

Daily Weather History Graph

Daily Weather History Graph

Search for Another Location

Airport or City:

Trip Planner

Search our weather history database for the weather conditions in past years. The results will help you decide how hot, cold, wet, or windy it might be!

Date:

Astronomy

Mar. 09, 2013 Rise Set
Actual Time 6:01 AM EST 5:39 PM EST
Civil Twilight 5:33 AM EST 6:07 PM EST
Nautical Twilight 5:01 AM EST 6:39 PM EST
Astronomical Twilight 4:29 AM EST 7:12 PM EST
Moon 4:24 AM EST (3/9) 3:37 PM EST (3/9)
Length of Visible Light 12h 33m
Length of Day
11h 38m
Waning Crescent, 5% of the Moon is Illuminated
Mar 9
Waning Crescent
Mar 11
New
Mar 19
First Quarter
Mar 27
Full
Apr 3
Last Quarter

Hourly Weather History & Observations

Time (EST) Temp. Windchill Dew Point Humidity Pressure Visibility Wind Dir Wind Speed Gust Speed Precip Events Conditions
12:52 AM 39.0 °F 31.8 °F 30.0 °F 70% 30.05 in 10.0 mi NNE 11.5 mph 28.8 mph N/A   Overcast
1:00 AM 39.2 °F 31.6 °F 30.2 °F 70% 30.04 in 10.0 mi NNE 12.7 mph 25.3 mph N/A   Overcast
1:13 AM 37.4 °F 28.5 °F 30.2 °F 75% 30.04 in 10.0 mi NNE 15.0 mph 28.8 mph N/A   Overcast
1:49 AM 37.4 °F 28.9 °F 30.2 °F 75% 30.04 in 10.0 mi NNE 13.8 mph 29.9 mph N/A   Overcast
1:52 AM 37.9 °F 29.2 °F 30.0 °F 73% 30.05 in 10.0 mi NNE 15.0 mph 29.9 mph N/A   Overcast
2:52 AM 37.0 °F 28.5 °F 30.0 °F 76% 30.05 in 10.0 mi NNE 13.8 mph 27.6 mph N/A   Overcast
3:52 AM 37.0 °F 28.9 °F 30.0 °F 76% 30.06 in 10.0 mi NNE 12.7 mph 26.5 mph N/A   Overcast
4:52 AM 37.0 °F 28.5 °F 30.0 °F 76% 30.09 in 10.0 mi NNE 13.8 mph 25.3 mph N/A   Overcast
5:52 AM 37.0 °F 27.7 °F 30.0 °F 76% 30.11 in 10.0 mi NNE 16.1 mph 25.3 mph N/A   Overcast
6:52 AM 37.0 °F 28.1 °F 30.0 °F 76% 30.13 in 10.0 mi NNE 15.0 mph 26.5 mph N/A   Overcast
7:52 AM 37.0 °F 29.3 °F 30.0 °F 76% 30.16 in 10.0 mi North 11.5 mph 27.6 mph N/A   Overcast
8:52 AM 37.0 °F 28.1 °F 30.0 °F 76% 30.18 in 10.0 mi NNE 15.0 mph 28.8 mph N/A   Overcast
9:52 AM 37.9 °F 29.2 °F 30.0 °F 73% 30.18 in 10.0 mi NNE 15.0 mph 27.6 mph N/A   Overcast
10:52 AM 37.9 °F 30.5 °F 30.0 °F 73% 30.19 in 10.0 mi NNE 11.5 mph 26.5 mph N/A   Overcast
11:44 AM 37.4 °F 30.3 °F 30.2 °F 75% 30.20 in 10.0 mi NNE 10.4 mph 23.0 mph N/A   Overcast
11:52 AM 37.9 °F 28.9 °F 30.9 °F 76% 30.21 in 10.0 mi NNE 16.1 mph 25.3 mph N/A   Overcast
12:09 PM 37.4 °F 28.5 °F 30.2 °F 75% 30.20 in 10.0 mi NNE 15.0 mph 26.5 mph N/A   Overcast
12:21 PM 37.4 °F 28.9 °F 30.2 °F 75% 30.20 in 10.0 mi NNE 13.8 mph 26.5 mph N/A   Overcast
12:52 PM 39.0 °F 31.4 °F 30.9 °F 73% 30.21 in 10.0 mi NNE 12.7 mph 23.0 mph N/A   Overcast
1:52 PM 37.9 °F 28.9 °F 30.9 °F 76% 30.22 in 10.0 mi NNE 16.1 mph 23.0 mph N/A   Overcast
2:52 PM 37.9 °F 30.0 °F 30.0 °F 73% 30.23 in 10.0 mi NNE 12.7 mph 21.9 mph N/A   Overcast
3:52 PM 37.0 °F 28.9 °F 30.0 °F 76% 30.24 in 10.0 mi NNE 12.7 mph 23.0 mph N/A   Overcast
4:52 PM 37.0 °F 29.3 °F 30.9 °F 79% 30.25 in 10.0 mi NE 11.5 mph 19.6 mph N/A   Overcast
5:52 PM 37.0 °F 28.9 °F 30.0 °F 76% 30.27 in 10.0 mi NNE 12.7 mph 20.7 mph N/A   Overcast
6:52 PM 37.0 °F 28.9 °F 30.0 °F 76% 30.30 in 10.0 mi NE 12.7 mph 18.4 mph N/A   Mostly Cloudy
7:17 PM 37.4 °F 29.8 °F 30.2 °F 75% 30.29 in 10.0 mi NE 11.5 mph 24.2 mph N/A   Scattered Clouds
7:42 PM 37.4 °F 29.8 °F 30.2 °F 75% 30.29 in 10.0 mi NNE 11.5 mph 18.4 mph N/A   Mostly Cloudy
7:52 PM 37.0 °F 28.5 °F 30.9 °F 79% 30.30 in 10.0 mi NE 13.8 mph 21.9 mph N/A   Mostly Cloudy
8:52 PM 37.0 °F 28.5 °F 30.9 °F 79% 30.30 in 10.0 mi NE 13.8 mph 23.0 mph N/A   Mostly Cloudy
9:52 PM 37.9 °F 30.5 °F 30.9 °F 76% 30.30 in 10.0 mi NE 11.5 mph 21.9 mph N/A   Mostly Cloudy
10:52 PM 37.9 °F 30.5 °F 30.9 °F 76% 30.31 in 10.0 mi NE 11.5 mph 19.6 mph N/A   Overcast
11:52 PM 37.9 °F 29.6 °F 30.9 °F 76% 30.31 in 10.0 mi NE 13.8 mph 20.7 mph N/A   Overcast